www.pogodaiklimat.ru

Погода и климат >> Архив погоды >> Россия >> Волгоградская область >> Серафимович


ПОГОДА в Серафимовиче

  • Прогноз погоды в Серафимовиче
  • Монитор погоды в Серафимовиче

АРХИВ ПОГОДЫ в Серафимовиче

Время (UTC), дата Ветер
(напр.,м/с)
 
Видим.   Явления Облачность Т
(С)
Тd
(С)
f
(%)
Тe
(С)
Тes
(С)
Комфортность P
(гПа)
Po
(гПа)
Тmin
(С)
Tmax
(С)
R
(мм)
R24
(мм)
S
(см)
03 10.09 В 2 20 км ясно +9.4 +3.2 65 +8 +8 1028.2 1012.8 +9.1
06 10.09 В 2 20 км ясно +17.7 +4.6 42 +18 +23 1028.5 1013.5
09 10.09 В 3 20 км ясно +24.6 +2.6 24 +24 +33 комфорт 1027.1 1012.5
12 10.09 В 4 20 км 4/3 600 м
[Cu hum Ci fib]
+25.8 +2.6 22 +25 +27 комфорт 1026.3 1011.7
15 10.09 В 2 20 км 3/3 600 м
[Sc diur, vesp]
+23.5 +4.0 28 +23 +23 комфорт 1026.4 1011.7 +26.1
18 10.09 В 3 20 км ясно +18.7 +5.1 41 +19 +19 1027.2 1012.3
21 10.09 В 2 20 км ясно +16.9 +4.9 45 +17 +17 1028.1 1013.1
00 11.09 СВ 1 20 км ясно +13.0 +5.1 59 +13 +13 1029.0 1013.8
03 11.09 СВ 2 20 км ясно +11.7 +5.6 66 +11 +11 1030.1 1014.8 +11.3
06 11.09 СВ 1 20 км ясно +18.8 +8.3 50 +20 +26 1030.4 1015.5
09 11.09 СВ 3 20 км 3/3 600 м
[Cu hum]
+26.0 +7.0 30 +26 +32 жарко 1029.6 1015.1
12 11.09 В 3 20 км 4/4 600 м
[Cu hum]
+26.3 +5.0 25 +25 +28 комфорт 1028.7 1014.2
15 11.09 В 3 20 км ясно +23.8 +2.6 25 +23 +23 комфорт 1028.5 1013.8 +26.9
18 11.09 В 3 20 км ясно +18.4 +1.7 33 +19 +19 1029.4 1014.5
21 11.09 ЮВ 2 20 км ясно +15.6 +3.2 43 +16 +16 1029.8 1014.7
00 12.09 В 1 20 км ясно +12.2 +3.5 55 +12 +12 1029.6 1014.3
03 12.09 СВ 1 20 км ясно +11.3 +3.5 59 +11 +11 1030.4 1015.1 +10.9
06 12.09 З 1 20 км ясно +16.2 +5.6 49 +17 +23 1030.3 1015.2
09 12.09 СВ 3 20 км 1/1 300 м
[Cu hum]
+24.9 +2.6 23 +24 +32 комфорт 1028.2 1013.6
12 12.09 В 2 20 км 3/3 300 м
[Cu hum]
+26.0 +1.1 20 +24 +28 комфорт 1026.7 1012.1
15 12.09 В 1 20 км 1/0
[Ac trans]
+23.3 +2.3 25 +23 +23 комфорт 1026.3 1011.6 +26.4
18 12.09 ЮВ 1 20 км ясно +19.2 +1.6 31 +21 +21 комфорт 1026.8 1011.9
21 12.09 В 1 20 км ясно +16.4 +1.7 37 +17 +17 1026.2 1011.2
00 13.09 З 1 20 км ясно +13.2 +3.1 50 +14 +14 1026.2 1011.0
03 13.09 З 1 20 км ясно +12.0 +2.8 53 +12 +12 1026.2 1011.0 +11.8
06 13.09 СЗ 1 20 км ясно +16.2 +5.3 48 +17 +23 1026.4 1011.4
09 13.09 С 1 20 км 1/1 300 м
[Cu hum]
+26.4 +3.0 22 +25 +36 комфорт 1024.5 1010.0
12 13.09 Ю 1 20 км 3/0
[Ac trans]
+27.4 +0.8 18 +25 +31 комфорт 1022.8 1008.4
15 13.09 ЮВ 1 20 км 1/0
[Ac trans]
+23.9 +2.5 25 +23 +23 комфорт 1021.9 1007.3 +27.7
18 13.09 Ю 4 20 км ясно +21.6 +1.1 26 +21 +21 комфорт 1022.1 1007.4
21 13.09 ЮЗ 2 20 км ясно +20.3 +1.0 28 +21 +21 комфорт 1021.5 1006.8
00 14.09 ЮЗ 2 20 км ясно +18.2 +1.2 32 +19 +19 1020.9 1006.1
03 14.09 ЮЗ 2 20 км 3/0
[Ac trans]
+16.9 +1.3 35 +17 +17 1020.7 1005.8 +16.6
06 14.09 ЮЗ 2 20 км 3/0
[Ac trans]
+22.5 +3.0 28 +22 +26 комфорт 1020.3 1005.7 +16.5
09 14.09 ЮЗ 3 20 км 6/6 600 м
[Cu hum]
+26.7 +0.8 18 +25 +28 комфорт 1018.4 1004.0
12 14.09 ЮЗ 3
{10}
20 км 8/8 600 м
[Sc diur, vesp]
+26.9 +1.3 19 +25 +26 комфорт 1017.0 1002.7
15 14.09 ЮЗ 2 20 км 9/3 600 м
[Sc diur, vesp Ac trans Ci fib]
+24.5 +0.9 21 +23 +23 комфорт 1016.0 1001.5 +28.0
18 14.09 Ю 4 20 км 6/0
[Ac trans]
+21.0 +0.4 25 +21 +21 комфорт 1015.5 1000.9
21 14.09 С 4
{10}
20 км 9/3 600 м
[Cb calv Ac trans]
+18.3 +9.9 58 +18 +18 1016.9 1002.2
00 15.09 СЗ 2 20 км 10/3 600 м
[Cb calv Ac und]
+14.2 +9.4 73 +14 +14 1017.7 1002.7
03 15.09 СЗ 2 20 км в посл. час ливневой дождь 10/5 600 м
[Cb calv Ac und]
+11.8 +10.0 89 +11 +11 1018.6 1003.5 +11.8 1
06 15.09 СЗ 3 20 км {ливн. осадки} 3/0
[Ac trans]
+14.7 +9.5 71 +14 +17 1019.3 1004.4 +11.5
09 15.09 СЗ 3 20 км 9/3 600 м
[Cu hum Ac trans Ci fib]
+17.9 +1.5 33 +18 +21 1018.5 1003.7
12 15.09 СЗ 3
{11}
20 км 3/3 600 м
[Cu hum]
+19.7 -0.9 25 +20 +23 1017.8 1003.1
15 15.09 СЗ 2
{11}
20 км 6/0
[Ci fib]
+17.2 +1.0 33 +18 +18 1018.0 1003.1 +19.8
18 15.09 ЮЗ 2 20 км 6/0
[Ci fib]
+14.0 +1.5 43 +14 +14 1018.8 1003.8
21 15.09 ЮЗ 2 20 км 6/0
[Ci fib]
+13.6 +0.8 42 +13 +13 1018.2 1003.2
00 16.09 ЮЗ 3 20 км 10/0
[Cs]
+13.3 +0.4 41 +12 +12 1017.1 1002.1
03 16.09 ЮЗ 4 20 км 8/0
[Ci fib]
+12.5 -0.3 41 +11 +11 1016.1 1001.0 +12.4
06 16.09 ЮЗ 5-10
{10}
20 км 1/0
[Ci fib]
+17.5 +0.4 31 +17 +19 1014.4 999.6 +12.4
09 16.09 ЮЗ 5-11
{12}
20 км 1/0
[Ci fib]
+21.6 +0.7 25 +21 +26 комфорт 1011.5 997.0
12 16.09 ЮЗ 4-10
{16}
20 км 8/0
[Ci]
+23.9 -1.0 19 +23 +26 комфорт 1008.6 994.2
15 16.09 ЮЗ 3
{13}
20 км 3/0
[Ci fib]
+22.2 -0.0 23 +22 +22 комфорт 1007.5 993.0 +24.0
18 16.09 ЮЗ 5
{11}
20 км 3/0
[Ac trans Ci fib]
+20.3 -1.0 24 +20 +20 1007.3 992.8
21 16.09 ЮЗ 4
{10}
20 км 8/0
[Ac trans Ci fib]
+17.6 0.0 30 +17 +17 1006.5 991.9
00 17.09 ЮЗ 3 10 км 9/0
[Ac trans]
+16.6 +1.0 35 +16 +16 1006.3 991.6

 

Местоположение метеостанции Серафимович (Волгоградская область, Россия): широта 49.57 долгота 42.73 высота над уровнем моря 129 м.

В архиве по умолчанию представлена погода в Серафимовиче за последнюю неделю. Архивные данные за месяц целиком и за предыдущие месяцы, начиная с января 2011 года, Вы можете получить, выбрав интересующий диапазон дат из раскрывающегося списка и нажав кнопку "Ввод!".


*Определитесь, кто Вы:
робот инопланетянин человек

Внимание! Время в таблицах - всемирное. Для получения местного времени необходимо прибавить поправку, которая равна 3 ч.

Смотрите также архив погоды в соседних городах и на ближайших метеорологических станциях:

Погода в Михайловке (Волгоградская область, Россия) (69 км)
Погода в Фролове (Волгоградская область, Россия) (72 км)
Погода в Боковской (Ростовская область, Россия) (76 км)
Погода в Иловле (Волгоградская область, Россия) (97 км)
Погода в Новоаннинском (Волгоградская область, Россия) (107 км)
Погода в Калаче-на-Дону (Волгоградская область, Россия) (113 км)
Погода в Казанской (Ростовская область, Россия) (117 км)
Погода в Даниловке (Волгоградская область, Россия) (133 км)
Погода в Ольховке (Волгоградская область, Россия) (135 км)
Погода в Нижнем Чире (Волгоградская область, Россия) (141 км)

Пояснения к столбцам:

Ветер - указаны скорость ветра в м/с - средняя за 10 мин, порывы в срок и между сроками (в фигурных скобках) и направление, откуда дует ветер: С - северный, СВ - северо-восточный, В - восточный, ЮВ - юго-восточный, Ю - южный, ЮЗ - юго-западный, З - западный, СЗ - северо-западный.
Видимость - горизонтальная дальность видимости в метрах или километрах. При видимости от 1 до 10 км при отсутствии осадков обычно наблюдается дымка, при ухудшении видимости до 1 км и менее - туман. В сухую погоду видимость может ухудшаться дымом, пылью или мглою.
Явления - указаны атмосферные явления, наблюдавшиеся в срок или в последний час перед сроком; фигурными скобками обозначены явления, наблюдавшиеся между сроками (за 1-3 часа до срока); квадратными скобками обозначены град или гололедные отложения с указанием их диаметра в мм.
Облачность - указаны через наклонную черту общая и нижняя облачность в баллах и высота нижней границы облаков в метрах; квадратными скобками обозначены формы облаков: Ci - перистые, Cs - перисто-слоистые, Cc - перисто-кучевые, Ac - высококучевые, As - высокослоистые, Sc - слоисто-кучевые, Ns - слоисто-дождевые, Cu - кучевые, Cb - кучево-дождевые. Подробнее классификацию облаков см. в Атласе облаков (PDF).
T - Температура воздуха - температура, измеренная на высоте 2 м над землей.
Td - Температура точки росы - температура, при понижении до которой содержащийся в воздухе водяной пар достигнет насыщения.
f - Относительная влажность воздуха - влажноcть воздуха, измеренная на высоте 2 м над землей.
Te - Эффективная температура - температура, которую ощущает одетый по сезону человек в тени. Характеристика душности погоды. При расчете учитывается влияние влажности воздуха и скорости ветра на теплоощущения человека.
Tes - Эффективная температура на солнце - температура, которую ощущает человек, с поправкой на солнечный нагрев. Характеристика знойности погоды. Зависит от высоты солнца над горизонтом, облачности и скорости ветра. Ночью, в пасмурную погоду, а также при ветре 12 м/с и более поправка равна нулю.
P - Атмосферное давление - приведенное к уровню моря атмосферное давление.
Po - Атмосферное давление - измеренное на уровне метеостанции атмосферное давление.
Tmin - Минимальная температура - минимум температуры воздуха на высоте 2 м над землей.
Tmax - Максимальная температура - максимум температуры воздуха на высоте 2 м над землей.
R - Количество осадков - Количество выпавших осадков за период времени, мм. При наведении курсора мыши на число - период времени, за который выпало указанное количество осадков.
R24 - Количество осадков - Количество выпавших осадков за 24 часа, мм.
S - Снежный покров - Высота снежного покрова, см. При наведении курсора мыши на число - состояние снежного покрова и степень покрытия местности в баллах.